Meteo pe oră la Allate

Astăzi, 19 Ianuarie, Marţi

Timp Temperatura Precipitaţii Vânt Presiune Umiditate
00:00 -6°C° 0.2 mm 2 m/s 630 mmHg 93%
01:00 -4°C° 0.3 mm 1 m/s 630 mmHg 92%
02:00 -4°C° 0.3 mm 1 m/s 630 mmHg 92%
03:00 -4°C° 0 mm 1 m/s 630 mmHg 90%
04:00 -4°C° 0.1 mm 1 m/s 631 mmHg 91%
05:00 -6°C° 0.1 mm 1 m/s 631 mmHg 91%
06:00 -6°C° 0.1 mm 1 m/s 632 mmHg 91%
07:00 -6°C° 0.1 mm 1 m/s 632 mmHg 89%
08:00 -6°C° 0.1 mm 1 m/s 632 mmHg 87%
09:00 -6°C° 0 mm 1 m/s 633 mmHg 85%
10:00 -6°C° 0.1 mm 2 m/s 633 mmHg 82%
11:00 -6°C° 0.1 mm 2 m/s 633 mmHg 79%
12:00 -6°C° 0.1 mm 2 m/s 633 mmHg 76%
13:00 -6°C° 0.1 mm 2 m/s 633 mmHg 78%
14:00 -7°C° 0.1 mm 2 m/s 632 mmHg 81%
15:00 -7°C° 0 mm 2 m/s 632 mmHg 83%
16:00 -8°C° 0.2 mm 2 m/s 632 mmHg 85%
17:00 -7°C° 0.2 mm 1 m/s 632 mmHg 87%
18:00 -8°C° 0.2 mm 1 m/s 633 mmHg 89%
19:00 -8°C° 0.1 mm 1 m/s 633 mmHg 89%
20:00 -8°C° 0.1 mm 1 m/s 633 mmHg 88%
21:00 -8°C° 0.1 mm 1 m/s 633 mmHg 88%
22:00 -8°C° 0 mm 1 m/s 633 mmHg 88%
23:00 -8°C° 0 mm 1 m/s 633 mmHg 88%

Mâine, 20 Ianuarie, Miercuri

Timp Temperatura Precipitaţii Vânt Presiune Umiditate
00:00 -8°C° 0 mm 1 m/s 633 mmHg 88%
01:00 -9°C° 0 mm 1 m/s 633 mmHg 89%
02:00 -9°C° 0 mm 1 m/s 632 mmHg 90%
03:00 -9°C° 0 mm 1 m/s 632 mmHg 91%
04:00 -9°C° 0.1 mm 1 m/s 632 mmHg 91%
05:00 -10°C° 0.1 mm 1 m/s 632 mmHg 91%
06:00 -10°C° 0.1 mm 1 m/s 632 mmHg 91%
07:00 -10°C° 0.2 mm 1 m/s 632 mmHg 90%
08:00 -9°C° 0.2 mm 1 m/s 632 mmHg 89%
09:00 -9°C° 0.2 mm 1 m/s 632 mmHg 87%
10:00 -9°C° 0.2 mm 1 m/s 633 mmHg 85%
11:00 -9°C° 0.2 mm 2 m/s 633 mmHg 83%
12:00 -9°C° 0.2 mm 2 m/s 633 mmHg 82%
13:00 -9°C° 0.2 mm 2 m/s 633 mmHg 83%
14:00 -9°C° 0.2 mm 2 m/s 633 mmHg 84%
15:00 -9°C° 0.2 mm 2 m/s 633 mmHg 85%
16:00 -9°C° 0.2 mm 2 m/s 633 mmHg 88%
17:00 -10°C° 0.2 mm 2 m/s 633 mmHg 90%
18:00 -9°C° 0.2 mm 1 m/s 634 mmHg 93%
19:00 -10°C° 0.2 mm 1 m/s 634 mmHg 93%
20:00 -10°C° 0.2 mm 1 m/s 634 mmHg 93%
21:00 -10°C° 0.2 mm 1 m/s 634 mmHg 93%
22:00 -10°C° 0.1 mm 1 m/s 634 mmHg 93%
23:00 -11°C° 0.1 mm 0 m/s 634 mmHg 92%

Poimâine, 21 Ianuarie, Joi

Timp Temperatura Precipitaţii Vânt Presiune Umiditate
00:00 -11°C° 0.1 mm 0 m/s 634 mmHg 92%
01:00 -11°C° 0 mm 0 m/s 634 mmHg 90%
02:00 -11°C° 0 mm 1 m/s 634 mmHg 89%
03:00 -12°C° 0 mm 1 m/s 634 mmHg 88%
04:00 -12°C° 0 mm 1 m/s 634 mmHg 87%
05:00 -12°C° 0 mm 1 m/s 635 mmHg 86%
06:00 -13°C° 0 mm 1 m/s 635 mmHg 85%
07:00 -12°C° 0 mm 1 m/s 636 mmHg 80%
08:00 -11°C° 0 mm 1 m/s 636 mmHg 75%
09:00 -10°C° 0 mm 1 m/s 637 mmHg 69%
10:00 -9°C° 0 mm 1 m/s 637 mmHg 66%
11:00 -8°C° 0 mm 1 m/s 638 mmHg 63%
12:00 -7°C° 0 mm 1 m/s 639 mmHg 60%
13:00 -7°C° 0 mm 1 m/s 639 mmHg 61%
14:00 -8°C° 0 mm 2 m/s 639 mmHg 63%
15:00 -8°C° 0 mm 2 m/s 639 mmHg 64%
16:00 -8°C° 0 mm 1 m/s 639 mmHg 68%
17:00 -9°C° 0 mm 1 m/s 639 mmHg 73%
18:00 -10°C° 0 mm 1 m/s 639 mmHg 77%
19:00 -11°C° 0 mm 1 m/s 639 mmHg 73%
20:00 -13°C° 0 mm 2 m/s 639 mmHg 69%
21:00 -13°C° 0 mm 2 m/s 640 mmHg 65%
22:00 -13°C° 0 mm 2 m/s 640 mmHg 62%
23:00 -13°C° 0 mm 2 m/s 640 mmHg 58%

22 Ianuarie, Vineri

Timp Temperatura Precipitaţii Vânt Presiune Umiditate
00:00 -13°C° 0 mm 2 m/s 640 mmHg 55%
01:00 -13°C° 0 mm 2 m/s 640 mmHg 53%
02:00 -13°C° 0 mm 2 m/s 640 mmHg 51%
03:00 -12°C° 0 mm 2 m/s 639 mmHg 49%
04:00 -12°C° 0 mm 2 m/s 639 mmHg 47%
05:00 -12°C° 0 mm 2 m/s 639 mmHg 45%
06:00 -12°C° 0 mm 2 m/s 639 mmHg 43%
07:00 -10°C° 0 mm 2 m/s 640 mmHg 43%
08:00 -9°C° 0 mm 2 m/s 640 mmHg 43%
09:00 -7°C° 0 mm 1 m/s 641 mmHg 43%
10:00 -4°C° 0 mm 1 m/s 641 mmHg 41%
11:00 -3°C° 0 mm 1 m/s 641 mmHg 39%
12:00 -2°C° 0 mm 0 m/s 642 mmHg 37%
13:00 -2°C° 0 mm 0 m/s 641 mmHg 42%
14:00 -2°C° 0 mm 0 m/s 641 mmHg 46%
15:00 -1°C° 0 mm 0 m/s 641 mmHg 50%
16:00 -2°C° 0 mm 1 m/s 641 mmHg 49%
17:00 -3°C° 0 mm 1 m/s 640 mmHg 48%
18:00 -4°C° 0 mm 1 m/s 640 mmHg 47%
19:00 -4°C° 0 mm 1 m/s 640 mmHg 45%
20:00 -4°C° 0 mm 1 m/s 640 mmHg 44%
21:00 -6°C° 0 mm 2 m/s 640 mmHg 42%
22:00 -6°C° 0 mm 2 m/s 640 mmHg 41%
23:00 -6°C° 0 mm 2 m/s 640 mmHg 39%

23 Ianuarie, Sâmbătă

Timp Temperatura Precipitaţii Vânt Presiune Umiditate
00:00 -6°C° 0 mm 2 m/s 640 mmHg 38%
01:00 -6°C° 0 mm 2 m/s 639 mmHg 37%
02:00 -6°C° 0 mm 2 m/s 639 mmHg 35%
03:00 -6°C° 0 mm 2 m/s 639 mmHg 34%
04:00 -6°C° 0 mm 2 m/s 638 mmHg 34%
05:00 -6°C° 0 mm 2 m/s 638 mmHg 34%
06:00 -6°C° 0 mm 2 m/s 638 mmHg 33%
07:00 -5°C° 0 mm 2 m/s 639 mmHg 36%
08:00 -2°C° 0 mm 1 m/s 639 mmHg 38%
09:00 -1°C° 0 mm 1 m/s 639 mmHg 41%
10:00 0°C° 0 mm 1 m/s 639 mmHg 41%
11:00 +1°C° 0 mm 1 m/s 639 mmHg 41%
12:00 +2°C° 0 mm 1 m/s 639 mmHg 42%
13:00 +2°C° 0 mm 1 m/s 639 mmHg 45%
14:00 +2°C° 0 mm 1 m/s 638 mmHg 49%
15:00 +2°C° 0 mm 1 m/s 638 mmHg 52%
16:00 -1°C° 0 mm 2 m/s 638 mmHg 50%
17:00 -3°C° 0 mm 2 m/s 637 mmHg 47%
18:00 -4°C° 0 mm 2 m/s 637 mmHg 44%
19:00 -4°C° 0 mm 2 m/s 637 mmHg 43%
20:00 -4°C° 0 mm 2 m/s 637 mmHg 42%
21:00 -4°C° 0 mm 2 m/s 637 mmHg 41%
22:00 -4°C° 0 mm 2 m/s 637 mmHg 40%
23:00 -4°C° 0 mm 2 m/s 636 mmHg 40%

24 Ianuarie, Duminică

Timp Temperatura Precipitaţii Vânt Presiune Umiditate
00:00 -4°C° 0 mm 2 m/s 636 mmHg 39%
01:00 -4°C° 0 mm 2 m/s 636 mmHg 38%
02:00 -4°C° 0 mm 2 m/s 636 mmHg 38%
03:00 -4°C° 0 mm 2 m/s 636 mmHg 37%
04:00 -4°C° 0 mm 2 m/s 636 mmHg 37%
05:00 -4°C° 0 mm 2 m/s 636 mmHg 37%
06:00 -4°C° 0 mm 2 m/s 635 mmHg 37%
07:00 -1°C° 0 mm 1 m/s 636 mmHg 38%
08:00 0°C° 0 mm 1 m/s 636 mmHg 40%
09:00 0°C° 0 mm 1 m/s 636 mmHg 41%
10:00 +2°C° 0 mm 1 m/s 637 mmHg 42%
11:00 +3°C° 0 mm 1 m/s 637 mmHg 42%
12:00 +3°C° 0 mm 0 m/s 637 mmHg 43%
13:00 +4°C° 0 mm 0 m/s 637 mmHg 45%
14:00 +4°C° 0 mm 0 m/s 636 mmHg 46%
15:00 +4°C° 0 mm 0 m/s 636 mmHg 48%
16:00 +3°C° 0 mm 1 m/s 636 mmHg 46%
17:00 +2°C° 0 mm 1 m/s 635 mmHg 44%
18:00 -1°C° 0 mm 2 m/s 635 mmHg 43%
19:00 -1°C° 0 mm 2 m/s 635 mmHg 43%
20:00 -1°C° 0 mm 2 m/s 635 mmHg 43%
21:00 -1°C° 0 mm 2 m/s 635 mmHg 43%
22:00 -1°C° 0 mm 2 m/s 635 mmHg 43%
23:00 -1°C° 0 mm 2 m/s 635 mmHg 42%
Arată mai mult

Formular de consimțământ

Meteoprog și furnizorii noștri de servicii pot stoca și accesa date personale, precum cookies, identificatori de dispozitiv sau alte tehnologii similare pe dispozitivul dumneavoastră și procesa astfel de date pentru a personaliza conținutul și reclamele, dar și pentru a oferi caracteristici de social media și pentru a analiza traficul.

  • Stocarea și/sau accesarea informațiilor pe dispozitivul dumneavoastră

    Cookies, identificatori de dispozitiv sau alte informații pot fi stocate sau accesate pe dispozitiv în scopurile indicate mai sus.

  • Reclame și conținut personalizat, evaluarea reclamelor și a conținutului, informații despre audiențe și dezvoltarea produselor

    Reclamele și conținutul pot fi personalizate pe baza unui profil. Pot fi adăugate date suplimentare pentru a personaliza mai bine reclamele și conținutul. Performanța reclamelor și conținutului poate fi măsurată. Pot fi obținute informații despre utilizatorii care au văzut reclamele și conținutul. Aceste date pot fi utilizate pentru a dezvolta sau îmbunătăți experiența utilizatorilor, sistemele și software-ul.

Dând clic pe ‘Sunt de acord’, permiteți utilizarea cookie-urilor menționate, a identificatorilor de dispozitiv, balizelor web sau altor tehnologii similare. Setările pot fi modificate din browser-ul dispozitivului dumneavoastră.

În anumite scopuri, interesele legitime pot prima asupra consimțământului. Puteți citi mai multe informații în acest sens în Politica privind Confidențialitatea Datelor și Cookie.